Location: Newark
(41.0400°S, 62.7845°W)
Time: 16:09:46
(UTC+00:00)

Vanguard 2 Rocket - Pass Details

Date: 03 December 2021
Orbit: 553 x 3325 km, 32.9° (Epoch: 23 January)

Event Time Altitude Azimuth Distance (km) Brightness Sun altitude
Rises 09:02:30 0° 309° (NW) 7,300 10.8 4.1°
Reaches altitude 10° 09:07:53 10° 314° (NW) 6,189 10.6 5.0°
Maximum altitude 09:25:16 47° 18° (NNE) 3,179 9.7 8.0°
Drops below altitude 10° 09:36:42 10° 87° (E) 4,192 11.8 10.0°
Sets 09:39:34 0° 92° (E) 4,863 12.2 10.5°
